[[{"header":{"parameterUnit":"m.s-1","parameterCategory":1,"la1":30.2991,"la2":30.254,"lo1":-89.0895,"lo2":-89.0444,"dy":0.0017,"dx":0.0017,"nx":28,"ny":28,"refTime":"2025-07-06T21:00:00:Z","depth":0,"parameterNumber":2,"parameterNumberName":"U-component_of_WINDS"},"data":[0,0,0,0,0,0,0,0,0,0,0,0,0,0,0,0,0,0,0,0,0,0,0,0,0,0,0,0,0,0,0,0,0,0,0,0,0,0,0,0,0,0,0,0,0,0,0,0,0,0,0,0,0,0,0,0,0,0,2.9501,2.9502,0,2.9637,2.9638,2.964,2.9616,2.9613,2.9611,2.9609,2.9749,2.9755,2.9761,0,0,0,0,0,0,0,0,0,0,0,0,0,2.9219,2.9225,2.95,2.9502,2.9504,2.9636,2.9638,2.964,2.9616,2.9613,2.961,2.9607,2.9747,2.9754,2.9761,0,0,0,0,0,0,0,0,0,0,0,0,0,2.9347,2.9226,2.95,2.9508,2.951,2.9636,2.9638,2.9641,2.9617,2.9613,2.9609,2.9606,2.9745,2.9753,2.9762,2.989,0,0,2.979,2.9794,0,0,0,0,0,0,0,0,2.934,2.9357,2.9505,2.9507,2.951,2.9605,2.9591,2.9724,2.9618,2.9576,2.9608,2.9604,2.9704,2.9716,2.975,2.9896,2.9902,2.9791,2.9796,2.98,2.9802,0,0,0,0,0,0,0,2.9331,2.9351,2.9554,2.9507,2.951,2.9504,2.9518,2.9616,2.9659,2.9579,2.9578,2.9594,2.9705,2.9741,2.9753,2.9904,2.979,2.9798,2.9804,2.9807,3.016,3.0163,0,0,0,0,0,0,2.932,2.9344,2.955,2.9558,2.9414,2.9512,2.9528,2.9578,2.9658,2.9666,2.9597,2.9593,2.9728,2.9742,2.9758,2.991,2.98,2.9808,2.9813,3.0156,3.016,3.0165,0,0,0,0,0,0,2.9314,2.9338,2.9544,2.9451,2.9477,2.9521,2.9578,2.9583,2.9619,2.9671,2.9679,2.9626,2.9725,2.9745,2.9856,2.9915,2.9812,2.982,3.0151,3.0157,3.0163,3.0217,0,0,0,0,0,0,2.9306,2.9336,2.9385,2.9452,2.9482,2.9641,2.9581,2.9588,2.9635,2.963,2.97,2.9709,2.9724,2.9843,2.9865,2.9925,2.9827,3.0146,3.0154,3.0161,3.021,3.0224,3.0236,0,0,0,0,0,2.9296,2.9396,2.9388,2.9413,2.9544,2.9645,2.9661,2.9677,2.9639,2.9689,2.9722,2.9706,2.9905,2.9855,2.988,2.9943,3.0142,3.0151,3.016,3.0204,3.0221,3.0236,0,0,0,0,0,0,2.9336,2.9405,2.9397,2.9522,2.9577,2.964,2.9703,2.9695,2.9762,2.9755,2.9772,2.9788,2.99,2.9933,2.9876,3.0069,3.0018,3.0033,3.0043,3.006,3.0073,3.0062,2.9835,0,0,0,0,0,2.9359,2.9435,2.9491,2.9596,2.9624,2.9659,2.9703,2.971,2.9769,2.9792,2.9833,2.9891,2.9966,3.0015,3.0087,3.0215,3.0229,3.0271,3.0284,3.0294,3.0306,3.0374,3.0392,3.0194,3.0194,3.0194,0,0,2.9408,2.9455,2.9502,2.9605,2.9649,2.9726,2.9679,2.9764,2.9821,2.9805,2.9912,2.9944,3.0009,3.0129,3.0184,3.016,3.0364,3.0306,3.0313,3.032,3.0385,3.0404,3.042,3.02,3.0199,3.0198,0,0,2.9536,2.9581,2.9671,2.9716,2.9782,2.9805,2.9826,2.9891,2.9911,3.0018,3.0007,3.0076,3.0206,3.0252,3.0292,3.0436,3.0424,3.0459,3.0526,3.0592,3.0608,3.0622,3.0671,3.0689,3.0471,3.0471,3.0472,0,2.9589,2.9705,2.9719,2.9804,2.9849,2.9838,2.9929,2.9972,3.0059,3.009,3.0062,3.0222,3.0266,3.0395,3.0429,3.0464,3.0488,3.0451,3.0605,3.0619,3.0632,3.0679,3.0698,3.0475,3.0475,3.0474,3.0474,0,2.9765,2.9846,2.9912,2.9994,3.0047,3.0135,3.0162,3.0213,3.0215,3.024,3.0349,3.04,3.0481,3.0512,3.0516,3.0642,3.0624,3.0601,3.0549,3.0654,3.0699,3.0717,3.048,3.0479,3.0478,3.0477,0,0,2.9923,3.0011,3.0035,3.0071,3.0143,3.0206,3.0293,3.0372,3.0414,3.0475,3.0547,3.0656,3.0634,3.068,3.0688,3.0746,3.0854,3.0715,3.0717,3.0737,3.0993,3.101,3.103,3.0847,3.0851,3.0853,3.0987,0,3.0057,3.021,3.0224,3.0361,3.0434,3.0424,3.0499,3.0551,3.0576,3.0643,3.0671,3.0747,3.0713,3.074,3.0797,3.0829,3.0906,3.082,3.0913,3.0916,3.0895,3.1054,3.1072,3.1196,3.1005,3.1008,3.101,0,3.0233,3.0297,3.0441,3.05,3.0532,3.0599,3.0671,3.0735,3.0793,3.0807,3.0858,3.0858,3.0947,3.0893,3.1015,3.0956,3.0995,3.1016,3.1022,3.103,3.0968,3.1065,3.1236,3.1254,3.1038,3.1036,3.1034,0,3.0331,3.0453,3.0554,3.0586,3.0659,3.0706,3.0739,3.0793,3.0839,3.0902,3.0932,3.1005,3.1045,3.1101,3.112,3.108,3.1241,3.1189,3.1254,3.1253,3.1287,3.1284,3.1465,3.1316,3.1315,3.1315,3.1314,0,3.0478,3.0566,3.0599,3.0661,3.0759,3.0774,3.0871,3.0901,3.0949,3.1016,3.1012,3.1075,3.1098,3.1165,3.1181,3.1278,3.1297,3.131,3.1313,3.1309,3.1307,3.1334,3.1325,3.132,3.1319,3.1318,3.1317,0,3.0604,3.063,3.0739,3.0798,3.0815,3.0884,3.0934,3.0994,3.1018,3.1103,3.1123,3.1161,3.1239,3.1265,3.136,3.137,3.1483,3.1479,3.1463,3.1463,3.1525,3.1518,3.1728,3.1756,3.159,3.1591,3.1592,0,3.0695,3.0762,3.0828,3.0872,3.0906,3.0978,3.1023,3.1041,3.1089,3.1159,3.121,3.1287,3.135,3.1475,3.1511,3.1583,3.158,3.1649,3.1591,3.1585,3.1579,3.1574,3.1579,3.1659,3.1661,3.1662,3.1663,0,3.0853,3.0862,3.0928,3.0999,3.1053,3.111,3.1165,3.1201,3.1227,3.1281,3.136,3.1408,3.1504,3.158,3.1654,3.1687,3.1679,3.1681,3.17,3.1696,3.1683,3.1689,3.149,3.1676,3.1675,3.1674,3.1673,3.1673,3.0963,3.1021,3.1076,3.1149,3.1192,3.1242,3.13,3.1331,3.1397,3.1476,3.1482,3.1567,3.1622,3.1719,3.1756,3.1823,3.1803,3.183,3.1837,3.1843,3.1846,3.1673,3.1836,3.1836,3.1836,3.1835,3.1835,0,3.112,3.1154,3.1221,3.1296,3.1354,3.1341,3.14,3.1449,3.1524,3.1575,3.1636,3.1726,3.18,3.1841,3.1914,3.1959,3.1957,3.1978,3.1973,3.1981,3.1861,3.1837,3.1978,3.1978,3.1978,3.1977,3.1977,3.1977,3.1208,3.1304,3.1319,3.1437,3.147,3.1553,3.1588,3.1634,3.1675,3.1775,3.1835,3.1861,3.1908,3.1985,3.2051,3.2061,3.2087,3.2109,3.2117,3.2004,3.199,3.1976,3.1953,3.2116,3.2116,3.2231,3.2232,3.2233]},{"header":{"parameterUnit":"m.s-1","parameterCategory":1,"la1":30.2991,"la2":30.254,"lo1":-89.0895,"lo2":-89.0444,"dy":0.0017,"dx":0.0017,"nx":28,"ny":28,"refTime":"2025-07-06T21:00:00:Z","depth":0,"parameterNumber":3,"parameterNumberName":"V-component_of_WINDS"},"data":[0,0,0,0,0,0,0,0,0,0,0,0,0,0,0,0,0,0,0,0,0,0,0,0,0,0,0,0,0,0,0,0,0,0,0,0,0,0,0,0,0,0,0,0,0,0,0,0,0,0,0,0,0,0,0,0,0,0,0.5791,0.5792,0,0.5847,0.5848,0.5849,0.5834,0.5832,0.5831,0.583,0.589,0.5892,0.5895,0,0,0,0,0,0,0,0,0,0,0,0,0,0.5671,0.5673,0.5791,0.5792,0.5792,0.5847,0.5848,0.5849,0.5834,0.5832,0.5831,0.583,0.5889,0.5892,0.5895,0,0,0,0,0,0,0,0,0,0,0,0,0,0.5725,0.5674,0.5791,0.5791,0.5792,0.5847,0.5848,0.5849,0.5834,0.5832,0.5831,0.5829,0.5888,0.5892,0.5896,0.5954,0,0,0.5908,0.5909,0,0,0,0,0,0,0,0,0.5722,0.5729,0.5791,0.5791,0.5792,0.5832,0.5828,0.5884,0.5834,0.5818,0.583,0.5828,0.5872,0.5877,0.5891,0.5957,0.5959,0.5908,0.591,0.5912,0.5913,0,0,0,0,0,0,0,0.5718,0.5727,0.5813,0.5792,0.5793,0.5789,0.5795,0.5838,0.5854,0.5819,0.5818,0.5825,0.5872,0.5888,0.5893,0.596,0.5908,0.5911,0.5914,0.5915,0.6077,0.6078,0,0,0,0,0,0,0.5714,0.5724,0.5812,0.5815,0.5752,0.5793,0.5799,0.5821,0.5853,0.5857,0.5827,0.5824,0.5882,0.5888,0.5895,0.5966,0.5912,0.5916,0.5918,0.6075,0.6077,0.6079,0,0,0,0,0,0,0.5711,0.5722,0.5809,0.5769,0.578,0.5797,0.5821,0.5823,0.5838,0.5859,0.5862,0.584,0.5881,0.5889,0.5939,0.5968,0.5918,0.5921,0.6073,0.6075,0.6078,0.6108,0,0,0,0,0,0,0.5708,0.5721,0.5743,0.577,0.5782,0.5853,0.5823,0.5825,0.5845,0.5843,0.5872,0.5875,0.588,0.5934,0.5943,0.5972,0.5924,0.607,0.6074,0.6077,0.6105,0.6112,0.6118,0,0,0,0,0,0.5704,0.575,0.5744,0.5755,0.581,0.5855,0.5862,0.5866,0.5847,0.587,0.5883,0.5874,0.5963,0.5939,0.595,0.598,0.6068,0.6073,0.6077,0.6102,0.6111,0.6118,0,0,0,0,0,0,0.5727,0.5753,0.5748,0.5804,0.5827,0.5852,0.5881,0.5875,0.5904,0.5901,0.5905,0.5912,0.5963,0.5976,0.5949,0.6039,0.6013,0.602,0.6028,0.6037,0.6043,0.6039,0.5928,0,0,0,0,0,0.5738,0.5771,0.5793,0.584,0.5852,0.5864,0.5884,0.5885,0.5909,0.5919,0.5936,0.596,0.5994,0.6016,0.6047,0.6106,0.6113,0.6133,0.6139,0.6144,0.615,0.6183,0.6192,0.6093,0.6093,0.6093,0,0,0.5763,0.5781,0.5802,0.5845,0.5864,0.5898,0.5873,0.5911,0.5937,0.5925,0.5974,0.5987,0.6014,0.6069,0.6094,0.6082,0.6179,0.615,0.6154,0.6157,0.6188,0.6198,0.6206,0.6096,0.6096,0.6095,0,0,0.5825,0.5842,0.5884,0.5902,0.5929,0.5937,0.5947,0.5973,0.5981,0.6029,0.6021,0.6052,0.6109,0.6129,0.6147,0.6216,0.6209,0.6226,0.6261,0.6292,0.63,0.6307,0.6332,0.6341,0.6232,0.6232,0.6232,0,0.5853,0.5904,0.5906,0.5945,0.5964,0.5954,0.5996,0.6014,0.6051,0.6065,0.605,0.6121,0.6139,0.6199,0.6216,0.623,0.6242,0.6224,0.6299,0.6306,0.6312,0.6336,0.6346,0.6234,0.6234,0.6234,0.6233,0,0.5936,0.5972,0.6002,0.6038,0.606,0.61,0.6109,0.6132,0.613,0.614,0.6189,0.621,0.6246,0.6259,0.6259,0.6319,0.6311,0.6297,0.6272,0.6324,0.6346,0.6356,0.6237,0.6236,0.6235,0.6235,0,0,0.6017,0.6051,0.6063,0.6078,0.6107,0.6135,0.6175,0.6209,0.6229,0.6254,0.6288,0.6336,0.6324,0.6344,0.6345,0.6373,0.6427,0.6356,0.6357,0.6369,0.6495,0.6506,0.6517,0.6421,0.6423,0.6425,0.6493,0,0.6082,0.6152,0.6155,0.6218,0.6252,0.6242,0.6277,0.6298,0.6308,0.6338,0.6348,0.6382,0.6363,0.6375,0.6402,0.6414,0.6452,0.6409,0.6454,0.6455,0.6449,0.6528,0.654,0.6604,0.6502,0.6503,0.6505,0,0.6169,0.6196,0.6263,0.6287,0.6301,0.6332,0.6364,0.6392,0.6417,0.6421,0.6443,0.644,0.6481,0.6453,0.651,0.6481,0.6499,0.6507,0.651,0.6516,0.6484,0.6537,0.6624,0.6634,0.6519,0.6517,0.6516,0,0.6222,0.6275,0.6322,0.6336,0.6365,0.6387,0.64,0.6422,0.6443,0.647,0.6484,0.6516,0.6534,0.6559,0.6565,0.6544,0.6622,0.6594,0.6628,0.6628,0.6646,0.6645,0.6738,0.6655,0.6655,0.6655,0.6655,0,0.6296,0.6337,0.6346,0.6376,0.6422,0.6424,0.647,0.6481,0.6501,0.6533,0.6526,0.6556,0.6561,0.6592,0.6597,0.6643,0.6651,0.6657,0.6658,0.6658,0.6658,0.6671,0.6667,0.6658,0.6657,0.6656,0.6656,0,0.6363,0.6371,0.6422,0.6444,0.6451,0.6484,0.6504,0.6532,0.654,0.658,0.6589,0.6602,0.6638,0.6646,0.6689,0.6692,0.6748,0.6744,0.674,0.674,0.6773,0.6771,0.688,0.6895,0.6801,0.6802,0.6803,0,0.6411,0.6442,0.6468,0.6489,0.6503,0.6535,0.6556,0.6559,0.6581,0.6611,0.6635,0.667,0.6699,0.6757,0.677,0.6803,0.68,0.6836,0.6805,0.6805,0.6802,0.6801,0.6804,0.6843,0.6844,0.6845,0.6845,0,0.6494,0.6496,0.6526,0.6557,0.6582,0.6606,0.663,0.6647,0.6653,0.6678,0.6715,0.6737,0.678,0.6815,0.6848,0.6861,0.6855,0.6855,0.6864,0.6866,0.6862,0.6866,0.6757,0.6852,0.6852,0.6851,0.6851,0.6851,0.6554,0.6582,0.6604,0.6638,0.6655,0.6677,0.6705,0.6716,0.6746,0.6782,0.6781,0.6821,0.6845,0.6888,0.6903,0.6935,0.6924,0.6937,0.6941,0.6945,0.6949,0.6856,0.694,0.694,0.694,0.694,0.694,0,0.6638,0.6652,0.6682,0.6715,0.6741,0.6732,0.6757,0.678,0.6815,0.6837,0.6865,0.6906,0.694,0.6956,0.6989,0.7012,0.701,0.702,0.702,0.7023,0.6956,0.6945,0.7022,0.7022,0.7022,0.7022,0.7022,0.7022,0.6685,0.6732,0.6736,0.6791,0.6805,0.6844,0.6859,0.688,0.6897,0.6944,0.6972,0.6981,0.7001,0.7036,0.7066,0.707,0.7083,0.7096,0.7098,0.7036,0.7028,0.702,0.7009,0.7098,0.7099,0.7163,0.7163,0.7164]}]]